"2014/01/01",  4.1,  4.4,  3.9
"2014/01/02",  4.4,  4.6,  4.2
"2014/01/03",  4.3,  4.6,  4.1
"2014/01/04",  4.2,  4.4,  4.0
"2014/01/05",  4.1,  4.4,  3.9
"2014/01/06",  3.9,  4.1,  3.7
"2014/01/07",  3.7,  4.0,  3.4
"2014/01/08",  3.6,  3.9,  3.5
"2014/01/09",  4.3,  4.7,  3.9
"2014/01/10",  4.5,  4.7,  4.3
"2014/01/11",  3.9,  4.4,  3.6
"2014/01/12",  3.5,  3.8,  3.3
"2014/01/13",  3.4,  3.6,  3.2
"2014/01/14",  3.3,  3.5,  3.2
"2014/01/15",  3.2,  3.4,  3.1
"2014/01/16",  3.0,  3.2,  2.7
"2014/01/17",  2.8,  3.0,  2.6
"2014/01/18",  2.9,  3.0,  2.7
"2014/01/19",  2.9,  3.1,  2.7
"2014/01/20",  2.8,  3.1,  2.6
"2014/01/21",  2.8,  3.2,  2.5
"2014/01/22",  3.3,  3.7,  3.1
"2014/01/23",  3.4,  3.7,  3.2
"2014/01/24",  3.3,  3.7,  3.1
"2014/01/25",  3.5,  3.7,  3.2
"2014/01/26",  3.8,  4.3,  3.5
"2014/01/27",  3.9,  4.3,  3.6
"2014/01/28",  3.7,  4.0,  3.4
"2014/01/29",  4.0,  4.2,  3.8
"2014/01/30",  4.1,  4.3,  3.9
"2014/01/31",  4.5,  4.9,  4.3
"2014/02/01",  4.5,  4.8,  4.3
"2014/02/02",  4.5,  4.8,  4.4
"2014/02/03",  5.0,  5.5,  4.8
"2014/02/04",  5.6,  5.7,  5.3
"2014/02/05",  4.8,  5.3,  4.6
"2014/02/06",  4.0,  4.6,  3.7
"2014/02/07",  3.8,  4.0,  3.6
"2014/02/08",  3.7,  4.0,  2.4
"2014/02/09",  1.4,  2.5,  1.0
"2014/02/10",  1.4,  1.5,  1.1
"2014/02/11",  1.6,  1.7,  1.5
"2014/02/12",  1.8,  2.1,  1.6
"2014/02/13",  2.0,  2.3,  1.8
"2014/02/14",  2.3,  2.4,  2.2
"2014/02/15",  3.3,  5.0,  1.8
"2014/02/16",  4.4,  4.8,  4.1
"2014/02/17",  4.0,  4.5,  3.7
"2014/02/18",  3.8,  4.2,  3.4
"2014/02/19",  3.5,  3.9,  3.2
"2014/02/20",  3.3,  3.6,  3.0
"2014/02/21",  3.4,  3.7,  3.1
"2014/02/22",  3.4,  3.7,  3.1
"2014/02/23",  3.4,  3.8,  3.2
"2014/02/24",  3.7,  3.9,  3.6
"2014/02/25",  3.9,  4.3,  3.6
"2014/02/26",  4.1,  4.5,  3.8
"2014/02/27",  4.4,  4.7,  4.2
"2014/02/28",  5.3,  6.2,  4.7
"2014/03/01",  6.2,  6.3,  6.0
"2014/03/02",  5.8,  6.0,  5.6
"2014/03/03",  5.5,  5.7,  5.3
"2014/03/04",  5.3,  5.7,  5.0
"2014/03/05",  5.5,  5.8,  5.4
"2014/03/06",  5.5,  5.7,  5.2
"2014/03/07",  5.3,  5.7,  5.0
"2014/03/08",  5.1,  5.5,  4.7
"2014/03/09",  5.1,  5.3,  4.8
"2014/03/10",  5.0,  5.4,  4.7
"2014/03/11",  5.0,  5.4,  4.6
"2014/03/12",  5.1,  5.6,  4.8
"2014/03/13",  5.7,  6.1,  5.5
"2014/03/14",  6.6,  6.8,  6.1
"2014/03/15",  6.5,  6.8,  6.2
"2014/03/16",  6.6,  7.0,  6.2
"2014/03/17",  6.7,  7.0,  6.3
"2014/03/18",  7.0,  7.5,  6.7
"2014/03/19",  7.5,  7.6,  7.3
"2014/03/20",  7.4,  7.6,  7.3
"2014/03/21",  7.4,  7.8,  7.2
"2014/03/22",  7.5,  7.8,  7.1
"2014/03/23",  7.6,  8.1,  7.2
"2014/03/24",  7.9,  8.4,  7.5
"2014/03/25",  8.4,  9.1,  8.1
"2014/03/26",  9.0,  9.4,  8.8
"2014/03/27",  9.4,  9.5,  9.2
"2014/03/28",  8.9,  9.4,  8.4
"2014/03/29",  9.3,  9.9,  8.9
"2014/03/30", 10.1, 10.4,  9.9
"2014/03/31", 10.4, 11.0, 10.1
"2014/04/01", 10.6, 11.0, 10.3
"2014/04/02", 10.4, 10.8, 10.0
"2014/04/03", 10.8, 11.4, 10.5
"2014/04/04", 12.0, 12.5, 11.4
"2014/04/05", 11.9, 12.5, 11.5
"2014/04/06", 11.5, 11.9, 11.1
"2014/04/07", 10.8, 11.4, 10.4
"2014/04/08", 10.9, 11.4, 10.4
"2014/04/09", 11.2, 11.6, 10.9
"2014/04/10", 11.5, 12.0, 11.1
"2014/04/11", 11.6, 12.0, 11.2
"2014/04/12", 11.5, 12.0, 11.1
"2014/04/13", 11.6, 12.0, 11.2
"2014/04/14", 11.7, 12.1, 11.4
"2014/04/15", 11.8, 12.4, 11.4
"2014/04/16", 12.2, 12.7, 11.9
"2014/04/17", 12.6, 13.1, 12.3
"2014/04/18", 12.7, 13.1, 12.2
"2014/04/19", 11.9, 12.2, 11.6
"2014/04/20", 11.7, 12.1, 11.5
"2014/04/21", 11.7, 11.8, 11.6
"2014/04/22", 12.0, 12.4, 11.8
"2014/04/23", 12.5, 13.1, 12.1
"2014/04/24", 13.0, 13.5, 12.6
"2014/04/25", 13.3, 13.8, 12.8
"2014/04/26", 13.6, 14.1, 13.2
"2014/04/27", 13.9, 14.4, 13.5
"2014/04/28", 14.2, 14.4, 13.9
"2014/04/29", 14.2, 14.4, 14.0
"2014/04/30", 14.2, 14.4, 14.1
"2014/05/01", 14.2, 14.8, 14.0
"2014/05/02", 14.9, 15.7, 14.5
"2014/05/03", 15.6, 16.2, 15.2
"2014/05/04", 15.9, 16.2, 15.5
"2014/05/05", 15.4, 16.1, 15.2
"2014/05/06", 14.9, 15.2, 14.4
"2014/05/07", 14.1, 14.6, 13.7
"2014/05/08", 14.5, 14.7, 14.2
"2014/05/09", 14.7, 15.2, 14.4
"2014/05/10", 14.9, 15.5, 14.4
"2014/05/11", 15.2, 15.7, 14.8
"2014/05/12", 15.4, 15.7, 15.0
"2014/05/13", 15.6, 15.8, 15.4
"2014/05/14", 15.7, 16.4, 15.3
"2014/05/15", 16.2, 16.4, 16.1
"2014/05/16", 16.3, 16.8, 15.9
"2014/05/17", 16.5, 17.2, 16.1
"2014/05/18", 17.0, 17.5, 16.7
"2014/05/19", 17.3, 17.7, 17.0
"2014/05/20", 17.5, 17.8, 17.3
"2014/05/21", 17.5, 17.8, 17.2
"2014/05/22", 16.9, 17.3, 16.5
"2014/05/23", 17.0, 17.3, 16.7
"2014/05/24", 17.3, 18.0, 17.0
"2014/05/25", 17.9, 18.3, 17.7
"2014/05/26", 18.1, 18.3, 17.9
"2014/05/27", 18.0, 18.3, 17.7
"2014/05/28", 18.4, 19.1, 18.1
"2014/05/29", 19.1, 19.7, 18.7
"2014/05/30", 19.6, 20.1, 19.2
"2014/05/31", 20.0, 20.6, 19.6
"2014/06/01", 20.5, 21.1, 20.1
"2014/06/02", 20.9, 21.2, 20.5
"2014/06/03", 20.9, 21.1, 20.6
"2014/06/04", 20.9, 21.3, 20.6
"2014/06/05", 20.8, 21.3, 20.5
"2014/06/06", 20.0, 20.5, 18.9
"2014/06/07", 18.5, 18.9, 18.1
"2014/06/08", 18.2, 18.7, 18.0
"2014/06/09", 19.2, 19.9, 18.7
"2014/06/10", 19.8, 20.4, 19.6
"2014/06/11", 20.3, 20.4, 20.2
"2014/06/12", 20.0, 20.2, 19.9
"2014/06/13", 20.2, 20.9, 19.8
"2014/06/14", 20.9, 21.4, 20.5
"2014/06/15", 21.3, 21.8, 20.9
"2014/06/16", 21.7, 22.2, 21.3
"2014/06/17", 22.0, 22.3, 21.7
"2014/06/18", 21.9, 22.3, 21.8
"2014/06/19", 21.8, 22.2, 21.4
"2014/06/20", 22.1, 22.4, 21.8
"2014/06/21", 22.2, 22.5, 22.0
"2014/06/22", 22.1, 22.5, 21.8
"2014/06/23", 21.7, 22.1, 21.3
"2014/06/24", 21.7, 22.1, 21.5
"2014/06/25", 21.3, 21.9, 20.5
"2014/06/26", 20.7, 21.4, 20.4
"2014/06/27", 21.5, 22.1, 21.2
"2014/06/28", 21.9, 22.1, 21.8
"2014/06/29", 21.9, 22.2, 21.6
"2014/06/30", 22.0, 22.3, 21.7
"2014/07/01", 22.3, 22.8, 22.0
"2014/07/02", 22.7, 23.1, 22.3
"2014/07/03", 22.8, 23.1, 22.6
"2014/07/04", 22.0, 22.8, 21.6
"2014/07/05", 21.4, 21.7, 21.3
"2014/07/06", 21.6, 22.1, 21.3
"2014/07/07", 21.9, 22.1, 21.8
"2014/07/08", 22.0, 22.7, 21.6
"2014/07/09", 22.5, 22.7, 22.3
"2014/07/10", 22.5, 22.8, 22.3
"2014/07/11", 23.0, 23.6, 22.7
"2014/07/12", 23.7, 24.2, 23.4
"2014/07/13", 23.7, 24.1, 23.5
"2014/07/14", 23.5, 24.0, 23.3
"2014/07/15", 23.9, 24.3, 23.5
"2014/07/16", 24.1, 24.3, 23.8
"2014/07/17", 24.1, 24.3, 23.8
"2014/07/18", 23.8, 24.2, 23.6
"2014/07/19", 23.3, 23.6, 23.1
"2014/07/20", 23.1, 23.3, 22.8
"2014/07/21", 23.1, 23.3, 22.8
"2014/07/22", 23.2, 23.7, 23.0
"2014/07/23", 23.7, 24.1, 23.4
"2014/07/24", 24.1, 24.4, 23.9
"2014/07/25", 24.4, 24.8, 24.1
"2014/07/26", 24.8, 25.2, 24.5
"2014/07/27", 25.2, 25.5, 24.9
"2014/07/28", 25.1, 25.5, 24.9
"2014/07/29", 24.7, 25.1, 24.4
"2014/07/30", 24.6, 24.9, 24.3
"2014/07/31", 24.7, 25.1, 24.5
"2014/08/01", 25.0, 25.3, 24.7
"2014/08/02", 25.2, 25.6, 24.9
"2014/08/03", 25.5, 25.8, 25.2
"2014/08/04", 25.7, 26.0, 25.4
"2014/08/05", 25.8, 26.1, 25.5
"2014/08/06", 26.0, 26.3, 25.7
"2014/08/07", 26.1, 26.4, 25.8
"2014/08/08", 26.0, 26.3, 25.9
"2014/08/09", 25.5, 25.9, 25.1
"2014/08/10", 24.6, 25.1, 24.3
"2014/08/11", 24.6, 24.9, 24.4
"2014/08/12", 24.7, 24.9, 24.6
"2014/08/13", 24.3, 24.6, 24.0
"2014/08/14", 24.6, 24.8, 24.5
"2014/08/15", 24.7, 25.1, 24.5
"2014/08/16", 24.7, 25.1, 24.1
"2014/08/17", 23.7, 24.1, 23.5
"2014/08/18", 23.7, 24.2, 23.5
"2014/08/19", 24.2, 24.6, 24.0
"2014/08/20", 24.6, 25.1, 24.4
"2014/08/21", 25.0, 25.3, 24.8
"2014/08/22", 25.2, 25.5, 25.0
"2014/08/23", 25.2, 25.5, 25.0
"2014/08/24", 24.8, 25.1, 24.6
"2014/08/25", 24.5, 24.9, 24.3
"2014/08/26", 24.0, 24.3, 23.6
"2014/08/27", 23.1, 23.6, 22.8
"2014/08/28", 22.4, 22.8, 22.1
"2014/08/29", 22.0, 22.1, 21.9
"2014/08/30", 21.9, 22.1, 21.7
"2014/08/31", 21.8, 21.9, 21.7
"2014/09/01", 21.7, 21.8, 21.6
"2014/09/02", 21.4, 21.8, 21.2
"2014/09/03", 21.7, 21.9, 21.6
"2014/09/04", 21.8, 21.9, 21.7
"2014/09/05", 22.0, 22.2, 21.9
"2014/09/06", 22.3, 22.6, 22.2
"2014/09/07", 22.3, 22.6, 21.9
"2014/09/08", 21.6, 21.9, 21.5
"2014/09/09", 21.4, 21.5, 21.3
"2014/09/10", 21.4, 21.5, 21.3
"2014/09/11", 21.3, 21.4, 21.0
"2014/09/12", 20.8, 21.0, 20.6
"2014/09/13", 20.8, 20.9, 20.6
"2014/09/14", 20.8, 21.0, 20.6
"2014/09/15", 20.9, 21.0, 20.7
"2014/09/16", 20.8, 21.1, 20.7
"2014/09/17", 21.0, 21.1, 20.9
"2014/09/18", 20.7, 20.9, 20.6
"2014/09/19", 20.1, 20.6, 19.9
"2014/09/20", 19.8, 20.0, 19.7
"2014/09/21", 19.5, 19.7, 19.2
"2014/09/22", 19.4, 19.7, 19.3
"2014/09/23", 19.5, 19.7, 19.3
"2014/09/24", 19.4, 19.6, 19.3
"2014/09/25", 19.5, 19.6, 19.5
"2014/09/26", 19.7, 19.9, 19.6
"2014/09/27", 19.6, 19.8, 19.4
"2014/09/28", 19.3, 19.5, 19.2
"2014/09/29", 19.3, 19.5, 19.2
"2014/09/30", 19.4, 19.5, 19.2
"2014/10/01", 19.4, 19.5, 19.2
"2014/10/02", 19.1, 19.3, 19.0
"2014/10/03", 19.3, 19.8, 19.0
"2014/10/04", 19.8, 19.9, 19.7
"2014/10/05", 19.2, 19.9, 16.6
"2014/10/06", 18.0, 19.2, 16.6
"2014/10/07", 18.7, 19.1, 18.5
"2014/10/08", 18.4, 18.7, 18.1
"2014/10/09", 18.3, 18.6, 18.2
"2014/10/10", 18.2, 18.5, 17.9
"2014/10/11", 18.2, 18.5, 18.1
"2014/10/12", 17.8, 18.2, 17.6
"2014/10/13", 17.5, 17.8, 17.3
"2014/10/14", 18.0, 18.7, 17.5
"2014/10/15", 18.0, 18.6, 17.4
"2014/10/16", 17.1, 17.4, 16.9
"2014/10/17", 17.0, 17.2, 16.7
"2014/10/18", 16.7, 17.2, 16.4
"2014/10/19", 16.3, 16.7, 16.0
"2014/10/20", 16.3, 16.5, 16.0
"2014/10/21", 16.6, 16.8, 16.5
"2014/10/22", 16.7, 16.8, 16.2
"2014/10/23", 15.8, 16.3, 15.6
"2014/10/24", 15.5, 15.8, 15.3
"2014/10/25", 15.5, 15.8, 15.2
"2014/10/26", 15.7, 16.2, 15.5
"2014/10/27", 16.3, 16.6, 16.1
"2014/10/28", 16.1, 16.6, 15.9
"2014/10/29", 15.3, 15.9, 15.0
"2014/10/30", 14.7, 15.1, 14.4
"2014/10/31", 14.8, 15.0, 14.7
"2014/11/01", 15.1, 15.3, 15.0
"2014/11/02", 15.5, 15.9, 15.2
"2014/11/03", 15.9, 16.0, 15.7
"2014/11/04", 15.3, 15.9, 15.0
"2014/11/05", 14.8, 15.1, 14.6
"2014/11/06", 14.8, 15.2, 14.6
"2014/11/07", 15.2, 15.3, 15.0
"2014/11/08", 14.9, 15.3, 14.7
"2014/11/09", 14.7, 14.9, 14.6
"2014/11/10", 14.9, 15.2, 14.8
"2014/11/11", 14.8, 15.2, 14.5
"2014/11/12", 14.4, 14.5, 14.3
"2014/11/13", 14.1, 14.4, 13.9
"2014/11/14", 13.4, 14.1, 13.1
"2014/11/15", 12.7, 13.2, 12.4
"2014/11/16", 12.1, 12.6, 11.8
"2014/11/17", 11.8, 12.0, 11.6
"2014/11/18", 11.7, 11.9, 11.5
"2014/11/19", 11.4, 11.8, 11.1
"2014/11/20"," * "," * "," * "
"2014/11/21"," * "," * "," * "
"2014/11/22"," * "," * "," * "
"2014/11/23"," * "," * "," * "
"2014/11/24"," * "," * "," * "
"2014/11/25"," * "," * "," * "
"2014/11/26"," * "," * "," * "
"2014/11/27"," * "," * "," * "
"2014/11/28"," * "," * "," * "
"2014/11/29"," * "," * "," * "
"2014/11/30"," * "," * "," * "
"2014/12/01"," * "," * "," * "
"2014/12/02"," * "," * "," * "
"2014/12/03"," * "," * "," * "
"2014/12/04"," * "," * "," * "
"2014/12/05"," * "," * "," * "
"2014/12/06",  8.7,  9.2,  8.4
"2014/12/07",  7.9,  8.5,  7.7
"2014/12/08",  7.7,  7.9,  7.6
"2014/12/09",  7.5,  7.9,  7.3
"2014/12/10",  7.2,  7.6,  6.9
"2014/12/11",  7.3,  7.6,  7.2
"2014/12/12",  7.7,  7.8,  7.6
"2014/12/13",  7.6,  7.8,  7.4
"2014/12/14",  7.0,  7.5,  6.8
"2014/12/15",  6.4,  6.9,  6.1
"2014/12/16",  6.3,  6.3,  6.1
"2014/12/17",  6.1,  6.3,  5.9
"2014/12/18",  5.4,  5.9,  5.2
"2014/12/19",  4.9,  5.2,  4.7
"2014/12/20",  4.8,  5.0,  4.7
"2014/12/21",  5.1,  5.5,  4.9
"2014/12/22",  5.5,  5.7,  5.4
"2014/12/23",  5.2,  5.6,  4.9
"2014/12/24",  4.8,  5.1,  4.5
"2014/12/25",  4.5,  4.8,  4.3
"2014/12/26",  4.4,  4.7,  4.1
"2014/12/27",  4.0,  4.3,  3.8
"2014/12/28",  3.7,  4.1,  3.4
"2014/12/29",  3.8,  4.0,  3.7
"2014/12/30",  4.1,  4.4,  3.8
"2014/12/31",  4.2,  4.5,  4.0
